Location: Clermont
(50.2608°N, 4.3172°E)
Time: 05:51:35
(UTC+00:00)

Cosmos 1666 - Pass Details

Date: 13 August 2020
Orbit: 498 x 519 km, 82.5° (Epoch: 23 September)

Event Time Altitude Azimuth Distance (km) Brightness Sun altitude
Exits shadow 22:46:46 31° 274° (W) 901 4.0 -24.1°
Maximum altitude 22:47:11 32° 288° (WNW) 884 4.1 -24.1°
Drops below altitude 10° 22:50:37 10° 353° (N) 1,728 6.4 -24.2°
Sets 22:52:55 0° 3° (N) 2,623 7.5 -24.3°
